owner,sensor,date,latitude,longitude,vertical_datum,wind_speed,wind_to_direction,wind_speed_of_gust,qcFlag 
TABS,ioos:station:wmo:42043:1,2019-03-01T05:30:00Z,28.9818,-94.9186,4.0,8.39,7.1,9.8,'1111122,1111122,1111122' 
TABS,ioos:station:wmo:42043:1,2019-03-01T07:00:00Z,28.9818,-94.9186,4.0,6.03,18.5,7.81,'1111122,1111122,1111122' 
TABS,ioos:station:wmo:42043:1,2019-03-01T08:00:00Z,28.9818,-94.9186,4.0,5.26,28.3,6.37,'1111122,1111122,1111122' 
TABS,ioos:station:wmo:42043:1,2019-03-01T09:00:00Z,28.9818,-94.9186,4.0,4.63,37.4,5.61,'1111122,1111122,1111122' 
TABS,ioos:station:wmo:42043:1,2019-03-01T10:00:00Z,28.9818,-94.9186,4.0,5.91,22.0,7.12,'1111122,1111122,1111122' 
TABS,ioos:station:wmo:42043:1,2019-03-01T11:00:00Z,28.9818,-94.9186,4.0,5.22,30.1,6.87,'1111122,1111122,1111122' 
TABS,ioos:station:wmo:42043:1,2019-03-01T12:00:00Z,28.9818,-94.9186,4.0,6.96,60.7,7.91,'1111122,1111122,1111122' 
TABS,ioos:station:wmo:42043:1,2019-03-01T13:00:00Z,28.9818,-94.9186,4.0,5.66,49.5,6.54,'1111122,1111122,1111122' 
TABS,ioos:station:wmo:42043:1,2019-03-01T13:30:00Z,28.9818,-94.9186,4.0,5.28,41.9,6.61,'1111122,1111122,1111122' 
TABS,ioos:station:wmo:42043:1,2019-03-01T15:00:00Z,28.9818,-94.9186,4.0,5.21,63.1,6.02,'1111122,1111122,1111122' 
TABS,ioos:station:wmo:42043:1,2019-03-01T16:00:00Z,28.9818,-94.9186,4.0,5.39,72.1,6.28,'1111122,1111122,1111122' 
TABS,ioos:station:wmo:42043:1,2019-03-01T17:00:00Z,28.9818,-94.9186,4.0,5.28,52.8,6.12,'1111122,1111122,1111122' 
TABS,ioos:station:wmo:42043:1,2019-03-01T18:00:00Z,28.9818,-94.9186,4.0,5.1,62.0,5.72,'1111122,1111122,1111122' 
TABS,ioos:station:wmo:42043:1,2019-03-01T19:00:00Z,28.9818,-94.9186,4.0,5.95,47.8,6.79,'1111122,1111122,1111122' 
TABS,ioos:station:wmo:42043:1,2019-03-01T20:00:00Z,28.9818,-94.9186,4.0,5.58,48.8,6.41,'1111122,1111122,1111122' 
TABS,ioos:station:wmo:42043:1,2019-03-01T21:00:00Z,28.9818,-94.9186,4.0,5.26,57.4,5.88,'1111122,1111122,1111122' 
TABS,ioos:station:wmo:42043:1,2019-03-01T22:00:00Z,28.9818,-94.9186,4.0,3.43,78.5,4.09,'1111122,1111122,1111122' 
TABS,ioos:station:wmo:42043:1,2019-03-01T23:00:00Z,28.9818,-94.9186,4.0,3.84,91.3,4.32,'1111122,1111122,1111122' 
TABS,ioos:station:wmo:42043:1,2019-03-01T23:30:00Z,28.9818,-94.9186,4.0,4.11,95.0,4.78,'1111122,1111122,1111122' 
TABS,ioos:station:wmo:42043:1,2019-03-02T05:00:00Z,28.9818,-94.9186,4.0,4.09,43.6,4.58,'1111122,1111122,1111122' 
TABS,ioos:station:wmo:42043:1,2019-03-02T06:00:00Z,28.9818,-94.9186,4.0,3.36,47.4,3.61,'1111122,1111122,1111122' 
TABS,ioos:station:wmo:42043:1,2019-03-02T07:00:00Z,28.9818,-94.9186,4.0,1.65,77.5,1.85,'1111122,1111122,1111122' 
TABS,ioos:station:wmo:42043:1,2019-03-02T08:00:00Z,28.9818,-94.9186,4.0,2.5,35.8,2.71,'1111122,1111122,1111122' 
TABS,ioos:station:wmo:42043:1,2019-03-02T09:00:00Z,28.9818,-94.9186,4.0,4.59,26.9,5.43,'1111122,1111122,1111122' 
TABS,ioos:station:wmo:42043:1,2019-03-02T10:00:00Z,28.9818,-94.9186,4.0,4.41,51.6,5.44,'1111122,1111122,1111122' 
TABS,ioos:station:wmo:42043:1,2019-03-02T11:00:00Z,28.9818,-94.9186,4.0,4.56,51.1,4.97,'1111122,1111122,1111122' 
TABS,ioos:station:wmo:42043:1,2019-03-02T12:00:00Z,28.9818,-94.9186,4.0,5.67,56.8,6.72,'1111122,1111122,1111122' 
TABS,ioos:station:wmo:42043:1,2019-03-02T13:00:00Z,28.9818,-94.9186,4.0,4.92,70.5,5.86,'1111122,1111122,1111122' 
TABS,ioos:station:wmo:42043:1,2019-03-02T14:00:00Z,28.9818,-94.9186,4.0,5.0,75.7,5.84,'1111122,1111122,1111122' 
TABS,ioos:station:wmo:42043:1,2019-03-02T15:00:00Z,28.9818,-94.9186,4.0,4.64,67.8,5.28,'1111122,1111122,1111122' 
TABS,ioos:station:wmo:42043:1,2019-03-02T16:00:00Z,28.9818,-94.9186,4.0,5.36,64.5,6.05,'1111122,1111122,1111122' 
TABS,ioos:station:wmo:42043:1,2019-03-02T17:00:00Z,28.9818,-94.9186,4.0,4.4,62.8,5.22,'1111122,1111122,1111122' 
TABS,ioos:station:wmo:42043:1,2019-03-02T18:00:00Z,28.9818,-94.9186,4.0,3.88,52.7,4.77,'1111122,1111122,1111122' 
TABS,ioos:station:wmo:42043:1,2019-03-02T19:00:00Z,28.9818,-94.9186,4.0,4.63,59.7,5.73,'1111122,1111122,1111122' 
TABS,ioos:station:wmo:42043:1,2019-03-02T20:00:00Z,28.9818,-94.9186,4.0,5.39,66.2,6.21,'1111122,1111122,1111122' 
TABS,ioos:station:wmo:42043:1,2019-03-02T21:00:00Z,28.9818,-94.9186,4.0,6.15,81.6,7.18,'1111122,1111122,1111122' 
TABS,ioos:station:wmo:42043:1,2019-03-02T22:00:00Z,28.9818,-94.9186,4.0,6.57,91.7,7.71,'1111122,1111122,1111122' 
TABS,ioos:station:wmo:42043:1,2019-03-02T23:00:00Z,28.9818,-94.9186,4.0,7.02,94.2,8.12,'1111122,1111122,1111122' 
TABS,ioos:station:wmo:42043:1,2019-03-02T23:30:00Z,28.9818,-94.9186,4.0,6.34,94.9,7.55,'1111122,1111122,1111122' 
TABS,ioos:station:wmo:42043:1,2019-03-03T06:00:00Z,28.9818,-94.9186,4.0,3.44,115.3,4.03,'1111122,1111122,1111122' 
TABS,ioos:station:wmo:42043:1,2019-03-03T07:00:00Z,28.9818,-94.9186,4.0,2.58,85.1,2.92,'1111122,1111122,1111122' 
TABS,ioos:station:wmo:42043:1,2019-03-03T08:00:00Z,28.9818,-94.9186,4.0,2.64,107.2,3.23,'1111122,1111122,1111122' 
TABS,ioos:station:wmo:42043:1,2019-03-03T09:00:00Z,28.9818,-94.9186,4.0,1.72,110.3,2.32,'1111122,1111122,1111122' 
TABS,ioos:station:wmo:42043:1,2019-03-03T09:30:00Z,28.9818,-94.9186,4.0,1.48,106.0,2.2,'1111122,1111122,1111122' 
TABS,ioos:station:wmo:42043:1,2019-03-03T11:00:00Z,28.9818,-94.9186,4.0,2.32,45.6,2.78,'1111122,1111122,1111122' 
TABS,ioos:station:wmo:42043:1,2019-03-03T12:00:00Z,28.9818,-94.9186,4.0,2.64,46.9,3.01,'1111122,1111122,1111122' 
TABS,ioos:station:wmo:42043:1,2019-03-03T13:00:00Z,28.9818,-94.9186,4.0,1.56,77.7,1.93,'1111122,1111122,1111122' 
TABS,ioos:station:wmo:42043:1,2019-03-03T14:00:00Z,28.9818,-94.9186,4.0,1.98,121.5,2.27,'1111122,1111122,1111122' 
TABS,ioos:station:wmo:42043:1,2019-03-03T15:00:00Z,28.9818,-94.9186,4.0,1.11,308.8,1.54,'1111122,1111122,1111122' 
TABS,ioos:station:wmo:42043:1,2019-03-03T16:00:00Z,28.9818,-94.9186,4.0,2.12,353.1,2.7,'1111122,1111122,1111122' 
TABS,ioos:station:wmo:42043:1,2019-03-03T17:00:00Z,28.9818,-94.9186,4.0,6.67,328.8,7.89,'1111122,1111122,1111122' 
TABS,ioos:station:wmo:42043:1,2019-03-03T18:00:00Z,28.9818,-94.9186,4.0,7.53,349.9,9.17,'1111122,1111122,1111122' 
TABS,ioos:station:wmo:42043:1,2019-03-03T19:00:00Z,28.9818,-94.9186,4.0,8.89,351.2,10.48,'1111122,1111122,1111122' 
TABS,ioos:station:wmo:42043:1,2019-03-03T20:00:00Z,28.9818,-94.9186,4.0,9.96,354.2,12.01,'1111122,1111122,1111122' 
TABS,ioos:station:wmo:42043:1,2019-03-03T21:00:00Z,28.9818,-94.9186,4.0,10.46,5.3,12.86,'1111122,1111122,1111122' 
TABS,ioos:station:wmo:42043:1,2019-03-03T22:00:00Z,28.9818,-94.9186,4.0,10.32,2.5,12.12,'1111122,1111122,1111122' 
TABS,ioos:station:wmo:42043:1,2019-03-03T23:00:00Z,28.9818,-94.9186,4.0,11.71,13.8,14.45,'1111122,1111122,1111122' 
TABS,ioos:station:wmo:42043:1,2019-03-03T23:30:00Z,28.9818,-94.9186,4.0,11.67,16.6,15.14,'1111122,1111122,1111122' 
TABS,ioos:station:wmo:42043:1,2019-03-04T05:00:00Z,28.9818,-94.9186,4.0,9.87,29.6,13.05,'1111122,1111122,1111122' 
TABS,ioos:station:wmo:42043:1,2019-03-04T06:00:00Z,28.9818,-94.9186,4.0,9.39,33.2,12.3,'1111122,1111122,1111122' 
TABS,ioos:station:wmo:42043:1,2019-03-04T07:00:00Z,28.9818,-94.9186,4.0,9.41,41.3,13.1,'1111122,1111122,1111122' 
TABS,ioos:station:wmo:42043:1,2019-03-04T08:00:00Z,28.9818,-94.9186,4.0,9.01,35.1,12.01,'1111122,1111122,1111122' 
TABS,ioos:station:wmo:42043:1,2019-03-04T09:00:00Z,28.9818,-94.9186,4.0,8.24,41.1,11.39,'1111122,1111122,1111122' 
TABS,ioos:station:wmo:42043:1,2019-03-04T10:00:00Z,28.9818,-94.9186,4.0,10.77,39.3,13.42,'1111122,1111122,1111122' 
TABS,ioos:station:wmo:42043:1,2019-03-04T11:00:00Z,28.9818,-94.9186,4.0,9.54,25.0,12.41,'1111122,1111122,1111122' 
TABS,ioos:station:wmo:42043:1,2019-03-04T12:00:00Z,28.9818,-94.9186,4.0,9.75,31.3,14.54,'1111122,1111122,1111122' 
TABS,ioos:station:wmo:42043:1,2019-03-04T13:00:00Z,28.9818,-94.9186,4.0,10.1,31.8,12.95,'1111122,1111122,1111122' 
TABS,ioos:station:wmo:42043:1,2019-03-04T14:00:00Z,28.9818,-94.9186,4.0,9.19,22.9,11.81,'1111122,1111122,1111122' 
TABS,ioos:station:wmo:42043:1,2019-03-04T15:00:00Z,28.9818,-94.9186,4.0,9.3,28.9,12.07,'1111122,1111122,1111122' 
TABS,ioos:station:wmo:42043:1,2019-03-04T16:00:00Z,28.9818,-94.9186,4.0,9.73,30.3,12.41,'1111122,1111122,1111122' 
TABS,ioos:station:wmo:42043:1,2019-03-04T16:30:00Z,28.9818,-94.9186,4.0,8.63,23.2,11.08,'1111122,1111122,1111122' 
 
DISCLAIMER: The Gulf of Mexico Coastal and Ocean Observing (GCOOS) Data Portal aggregates data from the regional data providers for the convenience of all data users. Data published on this website should not be used for navigation or certain other uses as we cannot guarantee data accuracy or availability. The data and delivery services are provided 'as is' without warranty of any kind. Data Source: Gulf of Mexico Coastal Ocean Observing System Data Portal (http://data.gcoos.org/) 
